| time (UTC) | temp F | wind direction | speed MPH | gust MPH | rain 1hr in | rain 24hr in | rain mn in | humidity % | barometer mb |
| 20260508014401 | 55 | 233 | 0.0 | 0.0 | 0.00 | 0.00 | 0.00 | 82 | 1013.3 |
| 20260508013329 | 55 | 233 | 0.0 | 0.0 | 0.00 | 0.00 | 0.00 | 78 | 1013.3 |
| 20260508012338 | 54 | 233 | 0.0 | 0.0 | 0.00 | 0.00 | 0.00 | 76 | 1013.3 |
| 20260508011338 | 54 | 233 | 0.0 | 0.0 | 0.00 | 0.00 | 0.00 | 81 | 1013.2 |
| 20260508010328 | 54 | 233 | 0.0 | 0.0 | 0.00 | 0.00 | 0.00 | 84 | 1013.3 |
| 20260508005344 | 54 | 233 | 0.0 | 0.0 | 0.00 | 0.00 | 0.00 | 85 | 1013.4 |
| 20260508004337 | 54 | 233 | 0.0 | 0.0 | 0.00 | 0.00 | 0.00 | 86 | 1013.4 |
| 20260508003326 | 54 | 233 | 0.0 | 0.0 | 0.00 | 0.00 | 0.00 | 85 | 1013.7 |
| 20260508002342 | 54 | 233 | 0.0 | 0.0 | 0.00 | 0.00 | 0.00 | 83 | 1013.8 |
| 20260508001344 | 53 | 224 | 0.0 | 0.0 | 0.00 | 0.00 | 0.00 | 81 | 1013.9 |
| 20260508000342 | 54 | 218 | 0.0 | 0.0 | 0.00 | 0.00 | 0.00 | 82 | 1014.0 |
| 20260507235331 | 54 | 231 | 0.0 | 0.0 | 0.00 | 0.00 | 0.00 | 82 | 1014.0 |
| 20260507234336 | 54 | 231 | 0.0 | 0.0 | 0.00 | 0.00 | 0.00 | 85 | 1014.0 |
| 20260507233329 | 54 | 231 | 0.0 | 0.0 | 0.00 | 0.00 | 0.00 | 85 | 1014.2 |
| 20260507232338 | 53 | 231 | 0.0 | 0.0 | 0.00 | 0.00 | 0.00 | 84 | 1014.4 |
| 20260507231338 | 53 | 231 | 0.0 | 0.0 | 0.00 | 0.00 | 0.00 | 85 | 1014.5 |
| 20260507230329 | 53 | 231 | 0.0 | 0.0 | 0.00 | 0.00 | 0.00 | 84 | 1014.8 |
| 20260507225339 | 54 | 229 | 0.0 | 0.0 | 0.00 | 0.00 | 0.00 | 84 | 1014.9 |
| 20260507224339 | 54 | 229 | 0.0 | 0.0 | 0.00 | 0.00 | 0.00 | 85 | 1014.8 |
| 20260507223331 | 54 | 232 | 0.0 | 0.0 | 0.00 | 0.00 | 0.00 | 86 | 1014.8 |
| 20260507222338 | 54 | 231 | 0.0 | 0.0 | 0.00 | 0.00 | 0.00 | 86 | 1014.7 |
| 20260507221339 | 54 | 231 | 0.0 | 0.0 | 0.00 | 0.00 | 0.00 | 86 | 1014.8 |
| 20260507220334 | 54 | 232 | 0.0 | 0.0 | 0.00 | 0.00 | 0.00 | 85 | 1014.8 |
| 20260507215343 | 55 | 232 | 0.0 | 0.0 | 0.00 | 0.00 | 0.00 | 84 | 1014.9 |
| 20260507214341 | 55 | 232 | 0.0 | 0.0 | 0.00 | 0.00 | 0.00 | 83 | 1014.8 |
| 20260507213339 | 55 | 232 | 0.0 | 0.0 | 0.00 | 0.00 | 0.00 | 84 | 1014.7 |
| 20260507212338 | 55 | 232 | 0.0 | 0.0 | 0.00 | 0.00 | 0.00 | 84 | 1014.7 |
| 20260507211338 | 55 | 231 | 0.0 | 0.0 | 0.00 | 0.00 | 0.00 | 85 | 1014.6 |
| 20260507210337 | 54 | 232 | 0.0 | 0.0 | 0.00 | 0.00 | 0.00 | 84 | 1014.7 |
| 20260507205359 | 54 | 232 | 0.0 | 0.0 | 0.00 | 0.00 | 0.00 | 84 | 1014.6 |
| 20260507204334 | 54 | 231 | 0.0 | 0.0 | 0.00 | 0.00 | 0.00 | 84 | 1014.6 |
| 20260507203351 | 55 | 232 | 0.0 | 0.0 | 0.00 | 0.00 | 0.00 | 83 | 1014.7 |
| 20260507202338 | 55 | 232 | 0.0 | 0.0 | 0.00 | 0.00 | 0.00 | 82 | 1014.6 |
| 20260507201358 | 55 | 232 | 0.0 | 0.0 | 0.00 | 0.00 | 0.00 | 82 | 1014.5 |
| 20260507200352 | 55 | 232 | 0.0 | 0.0 | 0.00 | 0.00 | 0.00 | 82 | 1014.4 |
| 20260507195342 | 55 | 232 | 0.0 | 0.0 | 0.00 | 0.00 | 0.00 | 83 | 1014.3 |
| 20260507194342 | 55 | 232 | 0.0 | 0.0 | 0.00 | 0.00 | 0.00 | 83 | 1014.3 |
| 20260507193402 | 55 | 232 | 0.0 | 0.0 | 0.00 | 0.00 | 0.00 | 82 | 1014.2 |
| 20260507192330 | 55 | 232 | 0.0 | 0.0 | 0.00 | 0.00 | 0.00 | 83 | 1014.2 |
| 20260507191329 | 55 | 232 | 0.0 | 0.0 | 0.00 | 0.00 | 0.00 | 83 | 1014.2 |
| 20260507190347 | 55 | 232 | 0.0 | 0.0 | 0.00 | 0.00 | 0.00 | 82 | 1014.2 |
| 20260507185338 | 56 | 232 | 0.0 | 0.0 | 0.00 | 0.00 | 0.00 | 84 | 1014.1 |
| 20260507184329 | 56 | 232 | 0.0 | 0.0 | 0.00 | 0.00 | 0.00 | 83 | 1014.1 |
| 20260507183346 | 56 | 238 | 0.0 | 0.0 | 0.00 | 0.00 | 0.00 | 83 | 1014.0 |
| 20260507182338 | 56 | 240 | 0.0 | 0.0 | 0.00 | 0.00 | 0.00 | 83 | 1014.1 |
| 20260507181340 | 56 | 243 | 0.0 | 0.0 | 0.00 | 0.00 | 0.00 | 84 | 1014.1 |
| 20260507180341 | 57 | 307 | 0.0 | 0.0 | 0.00 | 0.00 | 0.00 | 83 | 1014.4 |
| 20260507175357 | 57 | 20 | 0.0 | 1.0 | 0.00 | 0.00 | 0.00 | 84 | 1014.3 |
| 20260507174336 | 58 | 20 | 0.0 | 0.0 | 0.00 | 0.00 | 0.00 | 84 | 1014.4 |
| 20260507173358 | 58 | 20 | 0.0 | 0.0 | 0.00 | 0.00 | 0.00 | 84 | 1014.3 |
| 20260507172335 | 58 | 20 | 0.0 | 1.0 | 0.00 | 0.00 | 0.00 | 84 | 1014.3 |
| 20260507171333 | 59 | 20 | 0.0 | 0.0 | 0.00 | 0.00 | 0.00 | 85 | 1014.2 |
| 20260507170353 | 59 | 20 | 0.0 | 0.0 | 0.00 | 0.00 | 0.00 | 86 | 1014.4 |
| 20260507165328 | 60 | 20 | 0.0 | 0.0 | 0.00 | 0.00 | 0.00 | 85 | 1014.2 |
| 20260507164344 | 60 | 20 | 0.0 | 0.0 | 0.00 | 0.00 | 0.00 | 85 | 1014.2 |
| 20260507163344 | 60 | 20 | 0.0 | 0.0 | 0.00 | 0.00 | 0.00 | 84 | 1014.3 |
| 20260507162403 | 60 | 20 | 0.0 | 0.0 | 0.00 | 0.00 | 0.00 | 83 | 1014.2 |
| 20260507161334 | 61 | 20 | 0.0 | 0.0 | 0.00 | 0.00 | 0.00 | 82 | 1014.4 |
| 20260507160325 | 61 | 20 | 0.0 | 0.0 | 0.00 | 0.00 | 0.00 | 81 | 1014.4 |
| 20260507155337 | 61 | 20 | 0.0 | 0.0 | 0.00 | 0.00 | 0.00 | 80 | 1014.2 |
| 20260507154337 | 61 | 20 | 0.0 | 1.0 | 0.00 | 0.00 | 0.00 | 79 | 1014.3 |
| 20260507153329 | 61 | 20 | 0.0 | 0.0 | 0.00 | 0.00 | 0.00 | 81 | 1014.4 |
| 20260507152339 | 61 | 20 | 0.0 | 1.0 | 0.00 | 0.00 | 0.00 | 78 | 1014.6 |
| 20260507151337 | 62 | 101 | 0.0 | 1.0 | 0.00 | 0.00 | 0.00 | 76 | 1014.6 |
| 20260507150327 | 63 | 125 | 0.0 | 0.0 | 0.00 | 0.00 | 0.00 | 75 | 1014.5 |
| 20260507145338 | 63 | 334 | 0.0 | 0.0 | 0.00 | 0.00 | 0.00 | 73 | 1014.6 |
| 20260507144327 | 64 | 115 | 0.0 | 1.0 | 0.00 | 0.00 | 0.00 | 74 | 1014.6 |
| 20260507143326 | 64 | 339 | 0.0 | 4.0 | 0.00 | 0.00 | 0.00 | 71 | 1014.5 |
| 20260507142339 | 65 | 354 | 1.0 | 3.0 | 0.00 | 0.00 | 0.00 | 69 | 1014.7 |
| 20260507141338 | 65 | 125 | 0.0 | 1.0 | 0.00 | 0.00 | 0.00 | 71 | 1014.8 |
| 20260507140329 | 67 | 7 | 0.0 | 2.0 | 0.00 | 0.00 | 0.00 | 70 | 1014.9 |
| 20260507135337 | 67 | 314 | 0.0 | 0.0 | 0.00 | 0.00 | 0.00 | 68 | 1015.0 |
| 20260507134339 | 67 | 41 | 0.0 | 0.0 | 0.00 | 0.00 | 0.00 | 66 | 1015.0 |
| 20260507133328 | 68 | 348 | 0.0 | 2.0 | 0.00 | 0.00 | 0.00 | 66 | 1015.0 |
| 20260507132405 | 68 | 167 | 0.0 | 1.0 | 0.00 | 0.00 | 0.00 | 68 | 1015.3 |
| 20260507131332 | 68 | 297 | 0.0 | 3.0 | 0.00 | 0.00 | 0.00 | 65 | 1015.5 |
| 20260507130344 | 68 | 311 | 0.0 | 3.0 | 0.00 | 0.00 | 0.00 | 62 | 1015.5 |
| 20260507125340 | 68 | 326 | 0.0 | 2.0 | 0.00 | 0.00 | 0.00 | 63 | 1015.7 |
| 20260507124336 | 68 | 102 | 0.0 | 2.0 | 0.00 | 0.00 | 0.00 | 61 | 1015.7 |
| 20260507123333 | 68 | 84 | 0.0 | 4.0 | 0.00 | 0.00 | 0.00 | 66 | 1015.7 |
| 20260507122327 | 69 | 101 | 1.0 | 4.0 | 0.00 | 0.00 | 0.00 | 65 | 1015.6 |
| 20260507121343 | 69 | 349 | 0.0 | 1.0 | 0.00 | 0.00 | 0.00 | 65 | 1015.5 |
| 20260507120331 | 68 | 112 | 0.0 | 5.0 | 0.00 | 0.00 | 0.00 | 67 | 1015.6 |
| 20260507115340 | 68 | 5 | 1.0 | 3.0 | 0.00 | 0.00 | 0.00 | 65 | 1015.8 |
| 20260507114336 | 68 | 91 | 0.0 | 2.0 | 0.00 | 0.00 | 0.00 | 65 | 1015.7 |
| 20260507113331 | 68 | 259 | 0.0 | 5.0 | 0.00 | 0.00 | 0.00 | 67 | 1015.8 |
| 20260507112345 | 69 | 273 | 0.0 | 3.0 | 0.00 | 0.00 | 0.00 | 66 | 1015.6 |
| 20260507111341 | 69 | 347 | 1.0 | 2.0 | 0.00 | 0.00 | 0.00 | 64 | 1015.8 |
| 20260507110337 | 69 | 267 | 0.0 | 1.0 | 0.00 | 0.00 | 0.00 | 66 | 1015.8 |
| 20260507105329 | 69 | 90 | 0.0 | 4.0 | 0.00 | 0.00 | 0.00 | 65 | 1015.8 |
| 20260507104359 | 69 | 131 | 0.0 | 1.0 | 0.00 | 0.00 | 0.00 | 65 | 1015.8 |
| 20260507103328 | 69 | 101 | 0.0 | 4.0 | 0.00 | 0.00 | 0.00 | 65 | 1015.9 |
| 20260507102334 | 69 | 198 | 1.0 | 3.0 | 0.00 | 0.00 | 0.00 | 64 | 1015.9 |
| 20260507101333 | 69 | 134 | 0.0 | 3.0 | 0.00 | 0.00 | 0.00 | 64 | 1015.8 |
| 20260507100341 | 69 | 122 | 0.0 | 3.0 | 0.00 | 0.00 | 0.00 | 65 | 1015.7 |
| 20260507095342 | 69 | 133 | 0.0 | 3.0 | 0.00 | 0.00 | 0.00 | 64 | 1015.8 |
| 20260507094336 | 69 | 109 | 1.0 | 2.0 | 0.00 | 0.00 | 0.00 | 64 | 1015.8 |
| 20260507093327 | 69 | 128 | 0.0 | 5.0 | 0.00 | 0.00 | 0.00 | 67 | 1015.7 |
| 20260507092336 | 69 | 146 | 0.0 | 3.0 | 0.00 | 0.00 | 0.00 | 66 | 1015.8 |
| 20260507091336 | 69 | 120 | 0.0 | 2.0 | 0.00 | 0.00 | 0.00 | 66 | 1015.6 |
| 20260507090326 | 69 | 304 | 0.0 | 3.0 | 0.00 | 0.00 | 0.00 | 66 | 1015.5 |
| 20260507085343 | 68 | 106 | 0.0 | 2.0 | 0.00 | 0.00 | 0.00 | 66 | 1015.3 |
| 20260507084333 | 68 | 107 | 0.0 | 3.0 | 0.00 | 0.00 | 0.00 | 61 | 1015.3 |
| 20260507083326 | 68 | 150 | 0.0 | 2.0 | 0.00 | 0.00 | 0.00 | 60 | 1015.1 |
| 20260507082339 | 69 | 112 | 0.0 | 1.0 | 0.00 | 0.00 | 0.00 | 60 | 1015.1 |
| 20260507081356 | 68 | 158 | 0.0 | 4.0 | 0.00 | 0.00 | 0.00 | 62 | 1015.1 |
| 20260507080342 | 69 | 287 | 0.0 | 1.0 | 0.00 | 0.00 | 0.00 | 63 | 1015.1 |
| 20260507075329 | 69 | 124 | 0.0 | 2.0 | 0.00 | 0.00 | 0.00 | 62 | 1015.2 |
| 20260507074347 | 68 | 92 | 1.0 | 4.0 | 0.00 | 0.00 | 0.00 | 64 | 1015.2 |
| 20260507073341 | 68 | 284 | 0.0 | 3.0 | 0.00 | 0.00 | 0.00 | 61 | 1015.4 |
| 20260507072342 | 68 | 114 | 0.0 | 2.0 | 0.00 | 0.00 | 0.00 | 60 | 1015.4 |
| 20260507071333 | 67 | 330 | 0.0 | 0.0 | 0.00 | 0.00 | 0.00 | 62 | 1015.4 |
| 20260507070351 | 64 | 129 | 0.0 | 0.0 | 0.00 | 0.00 | 0.00 | 63 | 1015.5 |
| 20260507065338 | 63 | 301 | 0.0 | 0.0 | 0.00 | 0.00 | 0.00 | 64 | 1015.4 |
| 20260507064334 | 63 | 332 | 0.0 | 3.0 | 0.00 | 0.00 | 0.00 | 56 | 1015.2 |
| 20260507063351 | 65 | 321 | 1.0 | 3.0 | 0.00 | 0.00 | 0.00 | 61 | 1015.3 |
| 20260507062327 | 64 | 295 | 0.0 | 2.0 | 0.00 | 0.00 | 0.00 | 60 | 1015.3 |
| 20260507061343 | 62 | 355 | 0.0 | 5.0 | 0.00 | 0.00 | 0.00 | 64 | 1015.2 |
| 20260507060332 | 61 | 13 | 1.0 | 5.0 | 0.00 | 0.00 | 0.00 | 63 | 1015.0 |
| 20260507055402 | 60 | 281 | 1.0 | 6.0 | 0.00 | 0.00 | 0.00 | 65 | 1015.0 |
| 20260507054339 | 60 | 323 | 2.0 | 8.0 | 0.00 | 0.00 | 0.00 | 65 | 1014.7 |
| 20260507053328 | 59 | 15 | 2.0 | 5.0 | 0.00 | 0.00 | 0.00 | 70 | 1014.6 |
| 20260507052343 | 59 | 311 | 0.0 | 4.0 | 0.00 | 0.00 | 0.00 | 69 | 1014.4 |
| 20260507051343 | 59 | 229 | 1.0 | 8.0 | 0.00 | 0.00 | 0.00 | 69 | 1014.3 |
| 20260507050332 | 58 | 278 | 1.0 | 5.0 | 0.00 | 0.00 | 0.00 | 74 | 1014.1 |
| 20260507045339 | 57 | 316 | 1.0 | 7.0 | 0.00 | 0.00 | 0.00 | 75 | 1013.9 |
| 20260507044357 | 57 | 110 | 1.0 | 4.0 | 0.00 | 0.00 | 0.00 | 74 | 1013.8 |
| 20260507043333 | 56 | 105 | 2.0 | 11.0 | 0.00 | 0.00 | 0.00 | 74 | 1013.8 |
| 20260507042347 | 56 | 262 | 1.0 | 6.0 | 0.00 | 0.00 | 0.00 | 75 | 1013.6 |
| 20260507041342 | 56 | 85 | 2.0 | 6.0 | 0.00 | 0.00 | 0.00 | 73 | 1013.5 |
| 20260507040338 | 56 | 204 | 2.0 | 10.0 | 0.00 | 0.00 | 0.00 | 73 | 1013.7 |
| 20260507035327 | 56 | 314 | 1.0 | 6.0 | 0.00 | 0.00 | 0.00 | 75 | 1013.8 |
| 20260507034343 | 56 | 346 | 2.0 | 9.0 | 0.00 | 0.00 | 0.00 | 75 | 1013.9 |
| 20260507033330 | 56 | 139 | 1.0 | 7.0 | 0.00 | 0.00 | 0.00 | 75 | 1013.7 |
| 20260507032403 | 56 | 30 | 2.0 | 11.0 | 0.00 | 0.00 | 0.00 | 74 | 1013.6 |
| 20260507031338 | 56 | 266 | 3.0 | 8.0 | 0.00 | 0.00 | 0.00 | 74 | 1013.8 |
| 20260507030354 | 56 | 70 | 2.0 | 12.0 | 0.00 | 0.00 | 0.00 | 74 | 1013.8 |
| 20260507025343 | 56 | 248 | 3.0 | 13.0 | 0.00 | 0.00 | 0.00 | 73 | 1013.8 |
| 20260507024340 | 56 | 347 | 2.0 | 9.0 | 0.00 | 0.00 | 0.00 | 73 | 1013.9 |
| 20260507023334 | 56 | 65 | 2.0 | 6.0 | 0.00 | 0.00 | 0.00 | 72 | 1013.9 |
| 20260507022341 | 56 | 16 | 2.0 | 6.0 | 0.00 | 0.00 | 0.00 | 72 | 1013.9 |
| 20260507021338 | 56 | 238 | 2.0 | 7.0 | 0.00 | 0.00 | 0.00 | 73 | 1013.8 |
| 20260507020326 | 56 | 322 | 1.0 | 4.0 | 0.00 | 0.00 | 0.00 | 73 | 1013.8 |
| 20260507015343 | 56 | 209 | 2.0 | 6.0 | 0.00 | 0.00 | 0.00 | 72 | 1013.7 |